Time,TemperatureF,DewpointF,PressureIn,WindDirection,WindDirectionDegrees,WindSpeedMPH,WindSpeedGustMPH,Humidity,HourlyPrecipIn,Conditions,Clouds,dailyrainin,SoftwareType,DateUTC
2014-11-26 00:03:00,32.0,28.8,30.22,NNW,333,0.0,0.0,88,0.00,,,0.00,Wunderground v.1.15,2014-11-26 05:03:00,
2014-11-26 00:09:00,32.0,28.8,30.21,NNW,333,0.0,0.0,88,0.00,,,0.00,Wunderground v.1.15,2014-11-26 05:09:00,
2014-11-26 00:14:00,32.1,28.9,30.21,NNW,333,2.0,2.0,88,0.00,,,0.00,Wunderground v.1.15,2014-11-26 05:14:00,
2014-11-26 00:19:00,32.1,28.9,30.21,NNW,333,0.0,2.0,88,0.00,,,0.00,Wunderground v.1.15,2014-11-26 05:19:00,
2014-11-26 00:25:00,32.2,29.0,30.21,NNW,333,2.0,3.0,88,0.00,,,0.00,Wunderground v.1.15,2014-11-26 05:25:00,
2014-11-26 00:30:00,32.2,29.0,30.21,NNW,335,1.0,3.0,88,0.00,,,0.00,Wunderground v.1.15,2014-11-26 05:30:00,
2014-11-26 00:35:00,32.2,28.8,30.20,NNE,25,0.0,4.0,87,0.00,,,0.00,Wunderground v.1.15,2014-11-26 05:35:00,
2014-11-26 00:41:00,32.2,28.8,30.20,NNE,32,1.0,3.0,87,0.00,,,0.00,Wunderground v.1.15,2014-11-26 05:41:00,
2014-11-26 00:46:00,32.2,28.5,30.20,NNE,32,2.0,5.0,86,0.00,,,0.00,Wunderground v.1.15,2014-11-26 05:46:00,
2014-11-26 00:52:00,32.1,28.4,30.20,NE,46,4.0,4.0,86,0.00,,,0.00,Wunderground v.1.15,2014-11-26 05:52:00,
2014-11-26 00:57:00,32.1,28.4,30.20,NE,46,5.0,5.0,86,0.00,,,0.00,Wunderground v.1.15,2014-11-26 05:57:00,
2014-11-26 01:02:00,32.0,28.3,30.19,NE,46,3.0,3.0,86,0.00,,,0.00,Wunderground v.1.15,2014-11-26 06:02:00,
2014-11-26 01:08:00,32.0,28.3,30.20,NE,44,3.0,5.0,86,0.00,,,0.00,Wunderground v.1.15,2014-11-26 06:08:00,
2014-11-26 01:13:00,32.0,28.3,30.20,NE,44,3.0,3.0,86,0.00,,,0.00,Wunderground v.1.15,2014-11-26 06:13:00,
2014-11-26 01:18:00,32.0,28.3,30.20,NE,44,0.0,5.0,86,0.00,,,0.00,Wunderground v.1.15,2014-11-26 06:18:00,
2014-11-26 01:24:00,31.8,28.1,30.20,NE,44,0.0,2.0,86,0.00,,,0.00,Wunderground v.1.15,2014-11-26 06:24:00,
2014-11-26 01:30:00,31.7,28.0,30.20,NE,44,0.0,3.0,86,0.00,,,0.00,Wunderground v.1.15,2014-11-26 06:30:00,
2014-11-26 01:35:00,31.5,27.8,30.20,NE,44,0.0,1.0,86,0.00,,,0.00,Wunderground v.1.15,2014-11-26 06:35:00,
2014-11-26 01:41:00,31.4,27.7,30.20,NE,44,0.0,0.0,86,0.00,,,0.00,Wunderground v.1.15,2014-11-26 06:41:00,
2014-11-26 01:46:00,31.2,27.8,30.20,NE,44,0.0,0.0,87,0.00,,,0.00,Wunderground v.1.15,2014-11-26 06:46:00,
2014-11-26 01:51:00,30.9,27.5,30.20,NE,44,0.0,0.0,87,0.00,,,0.00,Wunderground v.1.15,2014-11-26 06:51:00,
2014-11-26 01:56:00,30.8,27.4,30.20,NE,44,0.0,1.0,87,0.00,,,0.00,Wunderground v.1.15,2014-11-26 06:56:00,
2014-11-26 02:02:00,30.7,27.3,30.21,NE,44,0.0,0.0,87,0.00,,,0.00,Wunderground v.1.15,2014-11-26 07:02:00,
2014-11-26 02:07:00,30.6,27.2,30.21,NE,44,0.0,1.0,87,0.00,,,0.00,Wunderground v.1.15,2014-11-26 07:07:00,
2014-11-26 02:12:00,30.4,27.3,30.21,NE,44,0.0,0.0,88,0.00,,,0.00,Wunderground v.1.15,2014-11-26 07:12:00,
2014-11-26 02:17:00,30.3,27.2,30.21,NE,44,0.0,0.0,88,0.00,,,0.00,Wunderground v.1.15,2014-11-26 07:17:00,
2014-11-26 02:22:00,30.2,27.1,30.20,NE,44,0.0,0.0,88,0.00,,,0.00,Wunderground v.1.15,2014-11-26 07:22:00,
2014-11-26 02:27:00,29.9,26.8,30.20,NE,44,0.0,0.0,88,0.00,,,0.00,Wunderground v.1.15,2014-11-26 07:27:00,
2014-11-26 02:32:00,29.8,27.0,30.20,NE,44,0.0,0.0,89,0.00,,,0.00,Wunderground v.1.15,2014-11-26 07:32:00,
2014-11-26 02:37:00,29.7,26.9,30.19,NE,44,0.0,0.0,89,0.00,,,0.00,Wunderground v.1.15,2014-11-26 07:37:00,
2014-11-26 02:42:00,29.6,26.8,30.19,NE,44,0.0,0.0,89,0.00,,,0.00,Wunderground v.1.15,2014-11-26 07:42:00,
2014-11-26 02:47:00,29.3,26.5,30.19,NE,44,0.0,0.0,89,0.00,,,0.00,Wunderground v.1.15,2014-11-26 07:47:00,
2014-11-26 02:52:00,29.2,26.4,30.18,NE,44,0.0,0.0,89,0.00,,,0.00,Wunderground v.1.15,2014-11-26 07:52:00,
2014-11-26 02:57:00,29.1,26.5,30.19,NE,44,0.0,0.0,90,0.00,,,0.00,Wunderground v.1.15,2014-11-26 07:57:00,
2014-11-26 03:02:00,29.2,26.6,30.19,NE,44,0.0,0.0,90,0.00,,,0.00,Wunderground v.1.15,2014-11-26 08:02:00,
2014-11-26 03:07:00,29.3,26.7,30.19,NE,44,0.0,4.0,90,0.00,,,0.00,Wunderground v.1.15,2014-11-26 08:07:00,
2014-11-26 03:12:00,29.4,26.8,30.18,NE,44,1.0,2.0,90,0.00,,,0.00,Wunderground v.1.15,2014-11-26 08:12:00,
2014-11-26 03:17:00,29.4,26.8,30.18,NE,44,1.0,3.0,90,0.00,,,0.00,Wunderground v.1.15,2014-11-26 08:17:00,
2014-11-26 03:22:00,29.4,26.8,30.18,NE,44,0.0,1.0,90,0.00,,,0.00,Wunderground v.1.15,2014-11-26 08:22:00,
2014-11-26 03:27:00,29.3,26.7,30.18,NE,44,0.0,1.0,90,0.00,,,0.00,Wunderground v.1.15,2014-11-26 08:27:00,
2014-11-26 03:32:00,29.3,27.0,30.18,NE,44,2.0,3.0,91,0.00,,,0.00,Wunderground v.1.15,2014-11-26 08:32:00,
2014-11-26 03:37:00,29.3,27.0,30.18,NE,45,0.0,3.0,91,0.00,,,0.00,Wunderground v.1.15,2014-11-26 08:37:00,
2014-11-26 03:42:00,29.3,26.7,30.18,NE,45,0.0,1.0,90,0.00,,,0.00,Wunderground v.1.15,2014-11-26 08:42:00,
2014-11-26 03:47:00,29.2,26.6,30.19,NE,45,3.0,3.0,90,0.00,,,0.00,Wunderground v.1.15,2014-11-26 08:47:00,
2014-11-26 03:52:00,29.1,26.5,30.18,NE,45,0.0,2.0,90,0.00,,,0.00,Wunderground v.1.15,2014-11-26 08:52:00,
2014-11-26 03:57:00,28.9,26.3,30.19,NE,45,0.0,2.0,90,0.00,,,0.00,Wunderground v.1.15,2014-11-26 08:57:00,
2014-11-26 04:02:00,28.8,26.2,30.18,NE,45,0.0,0.0,90,0.00,,,0.00,Wunderground v.1.15,2014-11-26 09:02:00,
2014-11-26 04:07:00,28.6,26.0,30.18,NE,45,0.0,2.0,90,0.00,,,0.00,Wunderground v.1.15,2014-11-26 09:07:00,
2014-11-26 04:12:00,28.4,25.8,30.17,NE,45,0.0,0.0,90,0.00,,,0.00,Wunderground v.1.15,2014-11-26 09:12:00,
2014-11-26 04:17:00,27.9,25.3,30.17,NE,45,1.0,2.0,90,0.00,,,0.00,Wunderground v.1.15,2014-11-26 09:17:00,
2014-11-26 04:22:00,27.8,25.5,30.17,NE,45,0.0,0.0,91,0.00,,,0.00,Wunderground v.1.15,2014-11-26 09:22:00,
2014-11-26 04:27:00,27.8,25.5,30.16,NE,45,0.0,0.0,91,0.00,,,0.00,Wunderground v.1.15,2014-11-26 09:27:00,
2014-11-26 04:32:00,27.9,25.6,30.16,NE,45,0.0,0.0,91,0.00,,,0.00,Wunderground v.1.15,2014-11-26 09:32:00,
2014-11-26 04:37:00,28.0,25.7,30.15,NE,45,1.0,2.0,91,0.00,,,0.00,Wunderground v.1.15,2014-11-26 09:37:00,
2014-11-26 04:43:00,28.0,26.0,30.15,NE,45,4.0,4.0,92,0.00,,,0.00,Wunderground v.1.15,2014-11-26 09:43:00,
2014-11-26 04:48:00,28.0,26.0,30.15,NE,45,0.0,4.0,92,0.00,,,0.00,Wunderground v.1.15,2014-11-26 09:48:00,
2014-11-26 04:53:00,27.9,25.6,30.15,NE,45,0.0,1.0,91,0.00,,,0.00,Wunderground v.1.15,2014-11-26 09:53:00,
2014-11-26 04:58:00,27.8,25.8,30.15,NE,45,0.0,3.0,92,0.00,,,0.00,Wunderground v.1.15,2014-11-26 09:58:00,
2014-11-26 05:03:00,27.7,25.7,30.15,NE,45,0.0,0.0,92,0.00,,,0.00,Wunderground v.1.15,2014-11-26 10:03:00,
2014-11-26 05:08:00,27.8,25.8,30.15,NE,45,0.0,0.0,92,0.00,,,0.00,Wunderground v.1.15,2014-11-26 10:08:00,
2014-11-26 05:13:00,27.7,25.4,30.15,NE,45,2.0,3.0,91,0.00,,,0.00,Wunderground v.1.15,2014-11-26 10:13:00,
2014-11-26 05:18:00,27.8,25.8,30.15,NE,45,3.0,3.0,92,0.00,,,0.00,Wunderground v.1.15,2014-11-26 10:18:00,
2014-11-26 05:23:00,27.7,25.7,30.15,NE,45,0.0,2.0,92,0.00,,,0.00,Wunderground v.1.15,2014-11-26 10:23:00,
2014-11-26 05:28:00,27.6,25.6,30.15,NE,45,0.0,3.0,92,0.00,,,0.00,Wunderground v.1.15,2014-11-26 10:28:00,
2014-11-26 05:33:00,27.6,25.3,30.16,NE,44,0.0,1.0,91,0.00,,,0.00,Wunderground v.1.15,2014-11-26 10:33:00,
2014-11-26 05:38:00,27.5,25.2,30.16,NE,45,0.0,2.0,91,0.00,,,0.00,Wunderground v.1.15,2014-11-26 10:38:00,
2014-11-26 05:43:00,27.6,25.3,30.16,NE,45,1.0,1.0,91,0.00,,,0.00,Wunderground v.1.15,2014-11-26 10:43:00,
2014-11-26 05:48:00,27.4,25.1,30.16,NE,45,1.0,2.0,91,0.00,,,0.00,Wunderground v.1.15,2014-11-26 10:48:00,
2014-11-26 05:53:00,27.3,25.3,30.16,NE,45,0.0,1.0,92,0.00,,,0.00,Wunderground v.1.15,2014-11-26 10:53:00,
2014-11-26 05:58:00,27.2,25.2,30.16,NE,44,2.0,4.0,92,0.00,,,0.00,Wunderground v.1.15,2014-11-26 10:58:00,
2014-11-26 06:03:00,27.1,25.1,30.16,NE,44,0.0,2.0,92,0.00,,,0.00,Wunderground v.1.15,2014-11-26 11:03:00,
2014-11-26 06:08:00,27.1,25.1,30.16,NE,44,2.0,4.0,92,0.00,,,0.00,Wunderground v.1.15,2014-11-26 11:08:00,
2014-11-26 06:13:00,27.1,25.1,30.16,NE,44,0.0,1.0,92,0.00,,,0.00,Wunderground v.1.15,2014-11-26 11:13:00,
2014-11-26 06:18:00,27.0,25.0,30.16,NE,44,1.0,2.0,92,0.00,,,0.00,Wunderground v.1.15,2014-11-26 11:18:00,
2014-11-26 06:23:00,27.1,25.1,30.16,NE,45,1.0,3.0,92,0.00,,,0.00,Wunderground v.1.15,2014-11-26 11:23:00,
2014-11-26 06:28:00,27.0,25.0,30.15,NE,44,0.0,3.0,92,0.00,,,0.00,Wunderground v.1.15,2014-11-26 11:28:00,
2014-11-26 06:33:00,27.0,25.0,30.15,NE,45,0.0,2.0,92,0.00,,,0.00,Wunderground v.1.15,2014-11-26 11:33:00,
2014-11-26 06:38:00,27.1,25.1,30.15,NE,45,1.0,2.0,92,0.00,,,0.00,Wunderground v.1.15,2014-11-26 11:38:00,